Location: Crescent
(42.8242°N, 73.7329°W)
Time: 20:33:51
(UTC+00:00)

SR - Pass Details

Date: 21 February 2026
Orbit: 573 x 848 km, 66.7° (Epoch: 6 March)

Event Time Altitude Azimuth Distance (km) Brightness Sun altitude
Rises 18:42:48 0° 313° (NW) 3,149 ? 32.6°
Reaches altitude 10° 18:45:45 10° 295° (WNW) 2,276 ? 32.4°
Maximum altitude 18:49:17 19° 252° (WSW) 1,802 ? 32.1°
Drops below altitude 10° 18:52:58 10° 210° (SSW) 2,376 ? 31.7°
Sets 18:56:08 0° 193° (SSW) 3,340 ? 31.4°
